[[{"header":{"parameterUnit":"m.s-1","parameterCategory":1,"la1":30.2991,"la2":30.254,"lo1":-89.0895,"lo2":-89.0444,"dy":0.0017,"dx":0.0017,"nx":28,"ny":28,"refTime":"2025-03-30T09:00:00:Z","depth":0,"parameterNumber":2,"parameterNumberName":"U-component_of_WINDS"},"data":[0,0,0,0,0,0,0,0,0,0,0,0,0,0,0,0,0,0,0,0,0,0,0,0,0,0,0,0,0,0,0,0,0,0,0,0,0,0,0,0,0,0,0,0,0,0,0,0,0,0,0,0,0,0,0,0,0,0,-0.0986,-0.0986,0,-0.103,-0.103,-0.1031,-0.1046,-0.1046,-0.1046,-0.1046,-0.1094,-0.1096,-0.1097,0,0,0,0,0,0,0,0,0,0,0,0,0,-0.0919,-0.092,-0.0986,-0.0986,-0.0987,-0.1029,-0.103,-0.1031,-0.1046,-0.1046,-0.1046,-0.1045,-0.1094,-0.1095,-0.1097,0,0,0,0,0,0,0,0,0,0,0,0,0,-0.0954,-0.092,-0.0985,-0.0999,-0.1001,-0.1029,-0.103,-0.1031,-0.1046,-0.1046,-0.1046,-0.1045,-0.1093,-0.1095,-0.1097,-0.1116,0,0,-0.1104,-0.1105,0,0,0,0,0,0,0,0,-0.0952,-0.0956,-0.0997,-0.0998,-0.1,-0.1032,-0.1024,-0.106,-0.1046,-0.1029,-0.1046,-0.1045,-0.1074,-0.1078,-0.1087,-0.1118,-0.1121,-0.1104,-0.1106,-0.1107,-0.1107,0,0,0,0,0,0,0,-0.0949,-0.0955,-0.1003,-0.0997,-0.1,-0.1005,-0.1009,-0.1031,-0.1053,-0.1031,-0.1032,-0.1037,-0.1075,-0.1084,-0.1088,-0.1121,-0.1104,-0.1106,-0.1108,-0.1108,-0.1172,-0.1172,0,0,0,0,0,0,-0.0944,-0.0952,-0.1002,-0.1004,-0.0975,-0.1006,-0.1011,-0.1022,-0.1052,-0.1057,-0.1037,-0.1037,-0.1081,-0.1085,-0.109,-0.1114,-0.1107,-0.1109,-0.111,-0.1171,-0.1172,-0.1172,0,0,0,0,0,0,-0.0943,-0.0948,-0.1,-0.0979,-0.0986,-0.1008,-0.102,-0.1023,-0.1033,-0.1057,-0.1061,-0.1042,-0.1081,-0.1087,-0.1109,-0.1116,-0.111,-0.1112,-0.1171,-0.1171,-0.1172,-0.1162,0,0,0,0,0,0,-0.0941,-0.0948,-0.0954,-0.0979,-0.0987,-0.1017,-0.102,-0.1024,-0.1036,-0.1037,-0.1063,-0.1068,-0.1081,-0.1106,-0.1112,-0.1118,-0.1113,-0.117,-0.1171,-0.1172,-0.1162,-0.1162,-0.1162,0,0,0,0,0,-0.0938,-0.095,-0.0954,-0.096,-0.0995,-0.1018,-0.1023,-0.1037,-0.1036,-0.1044,-0.1059,-0.1067,-0.1114,-0.1108,-0.1115,-0.1122,-0.117,-0.1171,-0.1172,-0.1161,-0.1162,-0.1162,0,0,0,0,0,0,-0.0927,-0.0954,-0.0958,-0.0978,-0.0996,-0.102,-0.103,-0.1037,-0.1055,-0.1055,-0.1074,-0.108,-0.1101,-0.1114,-0.1107,-0.1142,-0.1143,-0.1145,-0.1133,-0.1133,-0.1133,-0.113,-0.1115,0,0,0,0,0,-0.0926,-0.0941,-0.0965,-0.098,-0.0988,-0.1007,-0.1018,-0.1028,-0.1047,-0.1054,-0.1072,-0.1091,-0.111,-0.1123,-0.1142,-0.1164,-0.117,-0.1173,-0.1173,-0.1173,-0.1174,-0.1188,-0.1189,-0.1175,-0.1175,-0.1175,0,0,-0.0926,-0.0943,-0.0951,-0.0978,-0.0993,-0.1009,-0.1014,-0.1031,-0.1043,-0.1057,-0.1079,-0.1093,-0.1116,-0.1138,-0.1149,-0.115,-0.118,-0.1174,-0.1174,-0.1175,-0.1189,-0.119,-0.1191,-0.1175,-0.1175,-0.1175,0,0,-0.0933,-0.0947,-0.0962,-0.0976,-0.0997,-0.101,-0.1014,-0.1037,-0.1047,-0.1069,-0.108,-0.1096,-0.1129,-0.1145,-0.1157,-0.1172,-0.1179,-0.1178,-0.1179,-0.1191,-0.1192,-0.1194,-0.1199,-0.12,-0.1179,-0.1179,-0.1179,0,-0.0931,-0.0954,-0.0969,-0.0985,-0.0997,-0.1009,-0.1025,-0.1039,-0.1066,-0.1074,-0.1075,-0.1116,-0.1132,-0.1159,-0.1162,-0.1172,-0.1177,-0.1174,-0.1191,-0.1192,-0.1193,-0.1199,-0.1201,-0.1179,-0.1179,-0.1179,-0.1179,0,-0.095,-0.0966,-0.0976,-0.1,-0.1013,-0.1029,-0.1047,-0.1059,-0.1068,-0.1081,-0.1104,-0.1124,-0.1148,-0.1155,-0.1164,-0.1183,-0.1183,-0.1187,-0.1188,-0.1194,-0.1199,-0.1202,-0.1178,-0.1178,-0.1178,-0.1179,0,0,-0.0951,-0.0983,-0.0986,-0.0997,-0.1022,-0.1036,-0.1053,-0.1075,-0.1085,-0.1104,-0.1119,-0.1147,-0.1151,-0.1165,-0.1176,-0.1187,-0.1198,-0.119,-0.1191,-0.1191,-0.1221,-0.1217,-0.1219,-0.1203,-0.1204,-0.1204,-0.1219,0,-0.0961,-0.099,-0.1004,-0.1028,-0.1044,-0.1057,-0.1072,-0.1089,-0.1102,-0.1119,-0.1134,-0.1153,-0.1157,-0.1166,-0.1177,-0.1194,-0.1204,-0.1193,-0.1219,-0.1219,-0.1212,-0.1222,-0.1218,-0.1231,-0.1221,-0.1221,-0.1221,0,-0.0977,-0.0994,-0.1019,-0.1043,-0.105,-0.1063,-0.1084,-0.11,-0.1121,-0.113,-0.1145,-0.1156,-0.1176,-0.1176,-0.1204,-0.1197,-0.1208,-0.1218,-0.1219,-0.1222,-0.122,-0.1225,-0.1235,-0.1237,-0.1225,-0.1225,-0.1224,0,-0.0975,-0.1005,-0.1024,-0.1033,-0.1061,-0.107,-0.1082,-0.1103,-0.1115,-0.1135,-0.1143,-0.1165,-0.1177,-0.1195,-0.1212,-0.121,-0.1239,-0.124,-0.1247,-0.1247,-0.1252,-0.1252,-0.1264,-0.126,-0.126,-0.126,-0.126,0,-0.0985,-0.1,-0.1023,-0.1034,-0.1052,-0.1068,-0.1086,-0.1099,-0.1117,-0.1133,-0.1146,-0.1161,-0.1182,-0.12,-0.1214,-0.1236,-0.1241,-0.125,-0.1253,-0.1248,-0.1247,-0.1256,-0.1255,-0.1261,-0.1261,-0.1261,-0.126,0,-0.0985,-0.1001,-0.1022,-0.1047,-0.1053,-0.1065,-0.1087,-0.1099,-0.1113,-0.1133,-0.1138,-0.1161,-0.1182,-0.1201,-0.123,-0.124,-0.1262,-0.1266,-0.1254,-0.1256,-0.1262,-0.1261,-0.1281,-0.1285,-0.1278,-0.1278,-0.1278,0,-0.099,-0.1002,-0.1027,-0.1038,-0.1049,-0.1066,-0.1079,-0.1096,-0.1109,-0.1134,-0.1144,-0.1166,-0.1185,-0.1219,-0.1239,-0.1261,-0.1266,-0.1272,-0.127,-0.1265,-0.1266,-0.1265,-0.1267,-0.1271,-0.1271,-0.1271,-0.1271,0,-0.0998,-0.1005,-0.1022,-0.1041,-0.1056,-0.1073,-0.109,-0.1098,-0.1119,-0.1133,-0.1155,-0.1169,-0.1198,-0.1221,-0.1245,-0.126,-0.1269,-0.1272,-0.1275,-0.127,-0.1262,-0.1266,-0.1254,-0.1271,-0.1271,-0.1271,-0.1271,-0.1271,-0.1001,-0.1011,-0.1031,-0.1049,-0.1064,-0.108,-0.1093,-0.1108,-0.1126,-0.115,-0.116,-0.1182,-0.1204,-0.1237,-0.1252,-0.127,-0.1272,-0.1276,-0.1278,-0.1278,-0.1277,-0.1259,-0.1275,-0.1275,-0.1275,-0.1275,-0.1275,0,-0.1008,-0.1022,-0.1038,-0.1061,-0.1076,-0.1083,-0.1103,-0.1115,-0.1134,-0.1153,-0.1171,-0.1196,-0.1218,-0.1239,-0.1263,-0.1274,-0.1279,-0.1279,-0.1278,-0.1282,-0.1275,-0.1269,-0.1275,-0.1275,-0.1275,-0.1275,-0.1275,-0.1275,-0.1014,-0.1033,-0.1043,-0.1069,-0.1083,-0.1103,-0.1114,-0.113,-0.1145,-0.1172,-0.1189,-0.1203,-0.1223,-0.1248,-0.1269,-0.1275,-0.1283,-0.1282,-0.129,-0.1282,-0.1282,-0.1282,-0.1277,-0.1284,-0.1284,-0.1295,-0.1295,-0.1295]},{"header":{"parameterUnit":"m.s-1","parameterCategory":1,"la1":30.2991,"la2":30.254,"lo1":-89.0895,"lo2":-89.0444,"dy":0.0017,"dx":0.0017,"nx":28,"ny":28,"refTime":"2025-03-30T09:00:00:Z","depth":0,"parameterNumber":3,"parameterNumberName":"V-component_of_WINDS"},"data":[0,0,0,0,0,0,0,0,0,0,0,0,0,0,0,0,0,0,0,0,0,0,0,0,0,0,0,0,0,0,0,0,0,0,0,0,0,0,0,0,0,0,0,0,0,0,0,0,0,0,0,0,0,0,0,0,0,0,4.2957,4.2958,0,4.3021,4.3022,4.3023,4.3021,4.302,4.3019,4.3019,4.308,4.3083,4.3085,0,0,0,0,0,0,0,0,0,0,0,0,0,4.2831,4.2834,4.2957,4.2958,4.2959,4.3021,4.3022,4.3023,4.3021,4.302,4.3019,4.3018,4.3079,4.3082,4.3085,0,0,0,0,0,0,0,0,0,0,0,0,0,4.289,4.2834,4.2957,4.2966,4.2967,4.3021,4.3022,4.3023,4.3021,4.302,4.3019,4.3018,4.3078,4.3082,4.3086,4.3134,0,0,4.3097,4.3098,0,0,0,0,0,0,0,0,4.2886,4.2894,4.2963,4.2965,4.2967,4.3012,4.3,4.306,4.3022,4.3001,4.3019,4.3017,4.3058,4.3064,4.3078,4.3137,4.314,4.3097,4.3099,4.3101,4.3102,0,0,0,0,0,0,0,4.2882,4.2891,4.2982,4.2964,4.2966,4.2966,4.2972,4.3012,4.3036,4.3002,4.3002,4.301,4.3059,4.3075,4.308,4.314,4.3097,4.31,4.3103,4.3104,4.3245,4.3247,0,0,0,0,0,0,4.2877,4.2888,4.298,4.2984,4.2923,4.2969,4.2977,4.2999,4.3035,4.304,4.3011,4.301,4.3069,4.3075,4.3082,4.3143,4.3101,4.3104,4.3106,4.3244,4.3245,4.3247,0,0,0,0,0,0,4.2874,4.2885,4.2978,4.2936,4.2948,4.2972,4.2997,4.3001,4.3016,4.3042,4.3046,4.3023,4.3068,4.3077,4.3122,4.3145,4.3106,4.3109,4.3242,4.3244,4.3246,4.3265,0,0,0,0,0,0,4.2871,4.2884,4.2903,4.2937,4.295,4.3018,4.2999,4.3003,4.3023,4.3022,4.3054,4.3058,4.3068,4.3117,4.3126,4.315,4.3112,4.324,4.3243,4.3246,4.3263,4.3268,4.3272,0,0,0,0,0,4.2866,4.2904,4.2904,4.2915,4.2975,4.3019,4.3026,4.3038,4.3025,4.3044,4.3061,4.3057,4.3141,4.3121,4.3131,4.3157,4.3238,4.3242,4.3245,4.326,4.3267,4.3272,0,0,0,0,0,0,4.287,4.2909,4.2909,4.2959,4.2986,4.3018,4.3043,4.3044,4.3073,4.3071,4.3082,4.309,4.3136,4.315,4.3128,4.3207,4.3188,4.3194,4.3196,4.3202,4.3207,4.3203,4.3115,0,0,0,0,0,4.2878,4.2911,4.2942,4.2984,4.2998,4.3018,4.3038,4.3044,4.3072,4.3083,4.3103,4.3129,4.3162,4.3182,4.3213,4.3264,4.3273,4.3287,4.3292,4.3296,4.3301,4.3332,4.3339,4.3259,4.3259,4.3259,0,0,4.2892,4.2917,4.2937,4.2986,4.3007,4.3042,4.3027,4.3064,4.309,4.3088,4.3133,4.3149,4.3179,4.3228,4.3251,4.3242,4.3325,4.33,4.3303,4.3306,4.3336,4.3344,4.3351,4.3261,4.3261,4.326,0,0,4.2937,4.2959,4.2997,4.302,4.3054,4.3067,4.3077,4.311,4.3121,4.3167,4.3167,4.3197,4.3252,4.3275,4.3293,4.3349,4.3348,4.3359,4.3385,4.3414,4.3421,4.3427,4.3449,4.3456,4.3363,4.3363,4.3364,0,4.295,4.3004,4.3016,4.3054,4.3076,4.3078,4.3118,4.3138,4.318,4.3195,4.3184,4.3256,4.3276,4.3332,4.3346,4.336,4.3372,4.3356,4.3419,4.3425,4.3431,4.3452,4.346,4.3365,4.3365,4.3365,4.3364,0,4.302,4.3057,4.3083,4.3126,4.3151,4.3189,4.3208,4.3231,4.3236,4.3251,4.3299,4.3323,4.3361,4.3374,4.3378,4.3431,4.3425,4.3417,4.3398,4.3439,4.346,4.3468,4.3367,4.3366,4.3366,4.3366,0,0,4.3068,4.312,4.313,4.3151,4.3189,4.3217,4.3256,4.3295,4.3316,4.3344,4.3378,4.3426,4.3419,4.344,4.3447,4.3473,4.3519,4.3462,4.3463,4.3473,4.3582,4.3589,4.3599,4.3518,4.3519,4.352,4.358,0,4.3119,4.319,4.3203,4.3265,4.33,4.3304,4.3338,4.3365,4.338,4.3412,4.3428,4.3463,4.3451,4.3464,4.349,4.3508,4.3541,4.3503,4.355,4.3551,4.3544,4.3609,4.3616,4.3672,4.3588,4.3589,4.359,0,4.3187,4.322,4.3286,4.3323,4.3338,4.3369,4.3407,4.3437,4.3468,4.3477,4.3503,4.3507,4.3548,4.3527,4.3584,4.3558,4.3578,4.359,4.3592,4.3598,4.3574,4.3619,4.3689,4.3698,4.3602,4.3601,4.3601,0,4.3219,4.328,4.3328,4.3345,4.3388,4.341,4.3429,4.3459,4.3483,4.3515,4.3531,4.3567,4.3587,4.3615,4.3629,4.3612,4.3686,4.3665,4.3696,4.3696,4.3712,4.3711,4.3789,4.3722,4.3721,4.3721,4.3721,0,4.3275,4.3315,4.3344,4.3373,4.3419,4.3435,4.3479,4.3498,4.3525,4.3558,4.3562,4.3593,4.361,4.3643,4.3654,4.3701,4.3709,4.3719,4.3722,4.372,4.3719,4.3734,4.3731,4.3724,4.3723,4.3723,4.3722,0,4.3318,4.3339,4.3392,4.343,4.344,4.3473,4.3504,4.3534,4.355,4.3592,4.3603,4.3627,4.3668,4.3685,4.3732,4.374,4.3795,4.3794,4.3785,4.3787,4.3817,4.3815,4.3909,4.3923,4.3844,4.3845,4.3845,0,4.3353,4.3385,4.3427,4.3451,4.3472,4.3509,4.3534,4.355,4.3576,4.3615,4.364,4.3681,4.3714,4.3778,4.38,4.3837,4.3838,4.3869,4.3844,4.3842,4.3842,4.3841,4.3845,4.3874,4.3874,4.3875,4.3875,0,4.3415,4.3424,4.346,4.3501,4.3531,4.3563,4.3595,4.3613,4.3635,4.3663,4.3706,4.3732,4.3783,4.3824,4.3863,4.3882,4.3883,4.3883,4.3893,4.3892,4.3887,4.3893,4.38,4.3881,4.3881,4.388,4.388,4.388,4.3457,4.3486,4.3522,4.3563,4.3589,4.3619,4.3649,4.367,4.3706,4.3751,4.3758,4.3803,4.3836,4.3889,4.391,4.3946,4.3938,4.3951,4.3955,4.3958,4.3962,4.388,4.3953,4.3952,4.3952,4.3952,4.3952,0,4.352,4.3544,4.3582,4.3627,4.366,4.3659,4.3695,4.3722,4.3763,4.3794,4.3828,4.3877,4.3917,4.3944,4.3984,4.4008,4.401,4.4018,4.4018,4.4023,4.3965,4.3954,4.4017,4.4017,4.4017,4.4017,4.4017,4.4017,4.3557,4.3609,4.3623,4.3687,4.371,4.3757,4.3778,4.3806,4.3831,4.3887,4.3921,4.3939,4.3968,4.4011,4.4049,4.4055,4.4071,4.4081,4.4087,4.4033,4.4026,4.402,4.401,4.4083,4.4083,4.4142,4.4143,4.4143]}]]